EZY32NC BIKF-EGCC

Flight info

Callsign EZY32NC
Flight time N/A
Altitude 37000
Route PIXUM2D PIXUM DCT PETUX DCT PODAR DCT ORTAV/N0430F370 DCT ODPEX DCT BRUCE DCT CLYDE DCT GOW DCT FENIK DCT LUSIV DCT ELBUS DCT NAVSO DCT DCS DCT ASCOM L612 LAKEY
Aircraft A320/M-SDE2E3FGHIJ1RWXYZ/LB1

Departure

Time N/A
Airport Keflavik International Airport (BIKF)

Arrival

Time 2026-05-03 20:34
Airport Manchester Airport (EGCC)
Time Latitude Longitude Altitude Speed Heading
2026-05-03 20:15 54.15717 -2.88958 17972 ft 354 kts 147°
2026-05-03 20:15 54.13662 -2.86649 17466 ft 353 kts 147°
2026-05-03 20:15 54.11614 -2.84348 17043 ft 350 kts 147°
2026-05-03 20:15 54.09578 -2.82063 16579 ft 349 kts 147°
2026-05-03 20:16 54.07554 -2.79797 16080 ft 349 kts 147°
2026-05-03 20:16 54.05554 -2.77559 15540 ft 341 kts 147°
2026-05-03 20:16 54.03599 -2.75376 15040 ft 332 kts 147°
2026-05-03 20:16 54.01692 -2.73256 14586 ft 323 kts 147°
2026-05-03 20:17 53.99831 -2.71197 14132 ft 316 kts 147°
2026-05-03 20:17 53.97978 -2.69149 13678 ft 319 kts 147°
2026-05-03 20:17 53.96124 -2.67095 13207 ft 316 kts 147°
2026-05-03 20:17 53.94291 -2.65064 12763 ft 313 kts 147°
2026-05-03 20:18 53.92481 -2.63058 12331 ft 309 kts 147°
2026-05-03 20:18 53.90690 -2.61076 11898 ft 305 kts 147°
2026-05-03 20:18 53.88922 -2.59123 11474 ft 302 kts 147°
2026-05-03 20:18 53.87173 -2.57190 11054 ft 298 kts 147°
2026-05-03 20:19 53.85443 -2.55279 10635 ft 295 kts 147°
2026-05-03 20:19 53.83734 -2.53396 10225 ft 292 kts 147°
2026-05-03 20:19 53.82042 -2.51531 9808 ft 289 kts 147°
2026-05-03 20:19 53.80365 -2.49685 9377 ft 287 kts 147°
2026-05-03 20:20 53.78694 -2.47851 8974 ft 286 kts 147°
2026-05-03 20:20 53.77029 -2.46029 8662 ft 281 kts 147°
2026-05-03 20:20 53.75435 -2.44281 8497 ft 266 kts 147°
2026-05-03 20:20 53.73907 -2.42607 8157 ft 259 kts 146°
2026-05-03 20:21 53.72391 -2.40951 8000 ft 260 kts 147°
2026-05-03 20:21 53.70878 -2.39299 7963 ft 259 kts 147°
2026-05-03 20:21 53.69362 -2.37641 7977 ft 260 kts 147°
2026-05-03 20:21 53.67841 -2.35990 7977 ft 260 kts 150°
2026-05-03 20:22 53.66142 -2.35074 7977 ft 258 kts 179°
2026-05-03 20:22 53.64404 -2.35660 7978 ft 257 kts 205°
2026-05-03 20:22 53.62813 -2.37045 7976 ft 258 kts 210°
2026-05-03 20:22 53.61253 -2.38527 7959 ft 258 kts 210°
2026-05-03 20:23 53.59694 -2.40028 7970 ft 258 kts 210°
2026-05-03 20:23 53.58138 -2.41529 7965 ft 258 kts 210°
2026-05-03 20:23 53.56583 -2.43036 7965 ft 258 kts 210°
2026-05-03 20:23 53.55027 -2.44538 7957 ft 256 kts 210°
2026-05-03 20:24 53.53512 -2.45999 7974 ft 248 kts 210°
2026-05-03 20:24 53.52019 -2.47436 7974 ft 247 kts 210°
2026-05-03 20:24 53.50531 -2.48871 7948 ft 246 kts 210°
2026-05-03 20:24 53.49048 -2.50300 7641 ft 245 kts 210°
2026-05-03 20:25 53.47575 -2.51725 7313 ft 244 kts 210°
2026-05-03 20:25 53.46104 -2.53148 7057 ft 244 kts 210°
2026-05-03 20:25 53.44634 -2.54571 6807 ft 244 kts 210°
2026-05-03 20:25 53.43162 -2.55997 6551 ft 244 kts 210°
2026-05-03 20:26 53.41696 -2.57420 6301 ft 243 kts 210°
2026-05-03 20:26 53.40238 -2.58825 6058 ft 247 kts 210°
2026-05-03 20:26 53.38746 -2.60260 5781 ft 247 kts 210°
2026-05-03 20:26 53.37263 -2.61688 5503 ft 246 kts 210°
2026-05-03 20:27 53.35758 -2.63142 5239 ft 246 kts 210°
2026-05-03 20:27 53.34280 -2.64580 4983 ft 246 kts 210°
2026-05-03 20:27 53.32779 -2.65951 4759 ft 245 kts 200°
2026-05-03 20:27 53.31146 -2.66263 4521 ft 240 kts 167°
2026-05-03 20:28 53.29664 -2.65111 4263 ft 230 kts 137°
2026-05-03 20:28 53.28540 -2.63314 4001 ft 224 kts 131°
2026-05-03 20:28 53.27482 -2.61452 3782 ft 216 kts 130°
2026-05-03 20:28 53.26471 -2.59662 3573 ft 208 kts 130°
2026-05-03 20:29 53.25496 -2.57951 3393 ft 197 kts 130°
2026-05-03 20:29 53.24558 -2.56291 3197 ft 191 kts 126°
2026-05-03 20:29 53.24099 -2.54352 3074 ft 177 kts 90°
2026-05-03 20:29 53.24160 -2.52346 3033 ft 175 kts 81°
2026-05-03 20:30 53.24403 -2.50347 3027 ft 173 kts 65°
2026-05-03 20:30 53.25070 -2.48697 3034 ft 173 kts 50°
2026-05-03 20:30 53.25822 -2.47163 2985 ft 173 kts 50°
2026-05-03 20:30 53.26592 -2.45587 2811 ft 173 kts 51°
2026-05-03 20:31 53.27339 -2.44054 2599 ft 171 kts 51°
2026-05-03 20:31 53.28078 -2.42538 2391 ft 164 kts 51°
2026-05-03 20:31 53.28775 -2.41105 2163 ft 155 kts 51°
2026-05-03 20:31 53.29440 -2.39738 1957 ft 145 kts 51°
2026-05-03 20:32 53.30051 -2.38479 1783 ft 136 kts 51°
2026-05-03 20:32 53.30639 -2.37263 1528 ft 133 kts 50°
2026-05-03 20:32 53.31217 -2.36072 1394 ft 132 kts 50°
2026-05-03 20:32 53.31794 -2.34881 1185 ft 131 kts 50°
2026-05-03 20:33 53.32373 -2.33694 979 ft 131 kts 50°
2026-05-03 20:33 53.32946 -2.32516 809 ft 130 kts 50°
2026-05-03 20:33 53.33509 -2.31332 643 ft 130 kts 48°
2026-05-03 20:33 53.34089 -2.30167 485 ft 129 kts 50°
2026-05-03 20:34 53.34653 -2.28982 318 ft 130 kts 50°
2026-05-03 20:34 53.35208 -2.27848 250 ft 114 kts 51°
2026-05-03 20:34 53.35606 -2.27020 265 ft 65 kts 51°
2026-05-03 20:34 53.35737 -2.26749 268 ft 16 kts 52°
2026-05-03 20:35 53.35815 -2.26677 266 ft 13 kts 352°
2026-05-03 20:35 53.35869 -2.26694 263 ft 0 kts 350°
2026-05-03 20:35 53.35870 -2.26695 263 ft 2 kts 350°
2026-05-03 20:36 53.35901 -2.26708 259 ft 8 kts 336°
2026-05-03 20:36 53.35921 -2.26770 255 ft 8 kts 270°
2026-05-03 20:36 53.35910 -2.26813 254 ft 0 kts 238°
2026-05-03 20:37 53.35902 -2.26834 254 ft 4 kts 236°
2026-05-03 20:37 53.35874 -2.26893 254 ft 10 kts 231°
2026-05-03 20:38 53.35836 -2.26985 253 ft 12 kts 238°
2026-05-03 20:38 53.35786 -2.27112 252 ft 12 kts 231°
2026-05-03 20:38 53.35735 -2.27217 253 ft 11 kts 231°
2026-05-03 20:38 53.35690 -2.27311 253 ft 10 kts 231°
2026-05-03 20:39 53.35648 -2.27397 253 ft 9 kts 231°
2026-05-03 20:39 53.35619 -2.27476 252 ft 8 kts 257°
2026-05-03 20:39 53.35669 -2.27587 247 ft 13 kts 320°
2026-05-03 20:39 53.35733 -2.27643 247 ft 8 kts 338°
2026-05-03 20:40 53.35766 -2.27664 247 ft 4 kts 339°
2026-05-03 20:40 53.35815 -2.27738 247 ft 9 kts 313°
2026-05-03 20:40 53.35845 -2.27788 247 ft 4 kts 315°
2026-05-03 20:40 53.35855 -2.27804 247 ft 0 kts 315°
2026-05-03 20:41 53.35883 -2.27839 247 ft 11 kts 334°
2026-05-03 20:41 53.35961 -2.27847 247 ft 12 kts 345°
2026-05-03 20:41 53.36031 -2.27940 247 ft 13 kts 315°
2026-05-03 20:42 53.36097 -2.28053 247 ft 14 kts 314°
2026-05-03 20:42 53.36166 -2.28168 247 ft 14 kts 315°
2026-05-03 20:42 53.36238 -2.28290 247 ft 15 kts 314°
2026-05-03 20:42 53.36316 -2.28423 247 ft 14 kts 314°
2026-05-03 20:43 53.36389 -2.28488 247 ft 12 kts 346°
2026-05-03 20:43 53.36463 -2.28559 247 ft 13 kts 316°
2026-05-03 20:43 53.36528 -2.28670 247 ft 13 kts 314°
2026-05-03 20:43 53.36585 -2.28793 247 ft 14 kts 296°
2026-05-03 20:44 53.36633 -2.28890 247 ft 9 kts 332°
2026-05-03 20:44 53.36689 -2.28943 247 ft 10 kts 318°
2026-05-03 20:44 53.36744 -2.29031 247 ft 10 kts 327°
2026-05-03 20:44 53.36816 -2.29011 247 ft 12 kts 27°
2026-05-03 20:45 53.36879 -2.28918 247 ft 13 kts 45°
2026-05-03 20:45 53.36933 -2.28830 247 ft 4 kts 44°
2026-05-03 20:45 53.36945 -2.28790 247 ft 3 kts 102°
2026-05-03 20:45 53.36931 -2.28764 247 ft 2 kts 130°
2026-05-03 20:46 53.36925 -2.28752 247 ft 1 kts 132°
2026-05-03 20:46 53.36920 -2.28744 247 ft 1 kts 133°
2026-05-03 20:46 53.36920 -2.28743 247 ft 0 kts 133°